Previsão horária em Senador Guiomard

Hoje, 23 Novembro, Segunda-feira

Tempo Temperatura Precipitação Vento Pressão Humidade
00:00 +27°C° 0 mm 1 m/s 740 mmHg 74%
01:00 +25°C° 0 mm 0 m/s 741 mmHg 66%
02:00 +25°C° 0 mm 0 m/s 741 mmHg 69%
03:00 +24°C° 0 mm 0 m/s 741 mmHg 71%
04:00 +24°C° 0 mm 0 m/s 741 mmHg 74%
05:00 +26°C° 0 mm 0 m/s 741 mmHg 70%
06:00 +27°C° 0 mm 0 m/s 742 mmHg 65%
07:00 +29°C° 0 mm 0 m/s 743 mmHg 61%
08:00 +32°C° 0 mm 0 m/s 742 mmHg 52%
09:00 +36°C° 0 mm 0 m/s 742 mmHg 43%
10:00 +39°C° 0 mm 0 m/s 742 mmHg 33%
11:00 +43°C° 0 mm 1 m/s 741 mmHg 29%
12:00 +43°C° 0 mm 1 m/s 740 mmHg 25%
13:00 +43°C° 0 mm 2 m/s 739 mmHg 21%
14:00 +42°C° 0 mm 2 m/s 738 mmHg 23%
15:00 +41°C° 0 mm 2 m/s 737 mmHg 26%
16:00 +39°C° 0 mm 2 m/s 737 mmHg 28%
17:00 +37°C° 0 mm 2 m/s 737 mmHg 33%
18:00 +34°C° 0 mm 1 m/s 737 mmHg 38%
19:00 +31°C° 0 mm 1 m/s 738 mmHg 43%
20:00 +31°C° 0 mm 1 m/s 738 mmHg 46%
21:00 +30°C° 0 mm 1 m/s 739 mmHg 49%
22:00 +29°C° 0 mm 1 m/s 739 mmHg 52%
23:00 +29°C° 0 mm 1 m/s 739 mmHg 55%

Amanhã, 24 Novembro, Terça-feira

Tempo Temperatura Precipitação Vento Pressão Humidade
00:00 +26°C° 0 mm 0 m/s 739 mmHg 58%
01:00 +26°C° 0 mm 0 m/s 739 mmHg 61%
02:00 +25°C° 0.1 mm 0 m/s 739 mmHg 65%
03:00 +25°C° 0.1 mm 0 m/s 739 mmHg 70%
04:00 +24°C° 0.1 mm 0 m/s 740 mmHg 75%
05:00 +25°C° 0.1 mm 0 m/s 740 mmHg 74%
06:00 +26°C° 0.1 mm 0 m/s 741 mmHg 74%
07:00 +27°C° 0.1 mm 0 m/s 742 mmHg 74%
08:00 +32°C° 0 mm 1 m/s 742 mmHg 63%
09:00 +34°C° 0 mm 1 m/s 742 mmHg 52%
10:00 +38°C° 0 mm 2 m/s 742 mmHg 42%
11:00 +39°C° 0 mm 1 m/s 741 mmHg 39%
12:00 +40°C° 0 mm 1 m/s 740 mmHg 36%
13:00 +38°C° 0 mm 0 m/s 739 mmHg 33%
14:00 +40°C° 0 mm 1 m/s 738 mmHg 36%
15:00 +39°C° 0 mm 1 m/s 738 mmHg 38%
16:00 +38°C° 0 mm 2 m/s 737 mmHg 41%
17:00 +35°C° 0 mm 2 m/s 737 mmHg 49%
18:00 +32°C° 0 mm 2 m/s 738 mmHg 58%
19:00 +29°C° 0 mm 1 m/s 738 mmHg 66%
20:00 +29°C° 0 mm 1 m/s 738 mmHg 67%
21:00 +29°C° 0 mm 1 m/s 739 mmHg 69%
22:00 +28°C° 0 mm 1 m/s 740 mmHg 70%
23:00 +28°C° 0 mm 1 m/s 739 mmHg 72%

Depois de amanhã, 25 Novembro, Quarta-feira

Tempo Temperatura Precipitação Vento Pressão Humidade
00:00 +27°C° 0 mm 1 m/s 739 mmHg 74%
01:00 +27°C° 0 mm 1 m/s 739 mmHg 76%
02:00 +26°C° 0 mm 1 m/s 739 mmHg 79%
03:00 +26°C° 0 mm 1 m/s 740 mmHg 82%
04:00 +25°C° 0 mm 1 m/s 740 mmHg 85%
05:00 +26°C° 0.4 mm 1 m/s 740 mmHg 83%
06:00 +27°C° 0.4 mm 1 m/s 741 mmHg 81%
07:00 +28°C° 0.4 mm 1 m/s 741 mmHg 79%
08:00 +31°C° 0 mm 1 m/s 742 mmHg 68%
09:00 +34°C° 0 mm 1 m/s 742 mmHg 57%
10:00 +38°C° 0 mm 2 m/s 742 mmHg 45%
11:00 +39°C° 0 mm 1 m/s 741 mmHg 41%
12:00 +41°C° 0 mm 1 m/s 739 mmHg 36%
13:00 +43°C° 0 mm 1 m/s 738 mmHg 31%
14:00 +41°C° 0 mm 1 m/s 738 mmHg 33%
15:00 +40°C° 0 mm 1 m/s 737 mmHg 35%
16:00 +39°C° 0 mm 1 m/s 736 mmHg 37%
17:00 +35°C° 0.1 mm 1 m/s 737 mmHg 45%
18:00 +33°C° 0.1 mm 1 m/s 737 mmHg 54%
19:00 +31°C° 0.1 mm 1 m/s 738 mmHg 62%
20:00 +30°C° 0.1 mm 2 m/s 738 mmHg 69%
21:00 +29°C° 0.1 mm 2 m/s 739 mmHg 76%
22:00 +28°C° 0.1 mm 2 m/s 740 mmHg 82%
23:00 +27°C° 0.2 mm 2 m/s 740 mmHg 85%

26 Novembro, Quinta-feira

Tempo Temperatura Precipitação Vento Pressão Humidade
00:00 +27°C° 0.2 mm 1 m/s 740 mmHg 87%
01:00 +26°C° 0.2 mm 1 m/s 739 mmHg 90%
02:00 +26°C° 0.5 mm 1 m/s 739 mmHg 92%
03:00 +25°C° 0.5 mm 1 m/s 740 mmHg 94%
04:00 +25°C° 0.5 mm 1 m/s 740 mmHg 97%
05:00 +26°C° 0 mm 1 m/s 740 mmHg 94%
06:00 +26°C° 0 mm 1 m/s 741 mmHg 92%
07:00 +27°C° 0 mm 1 m/s 741 mmHg 90%
08:00 +29°C° 0 mm 1 m/s 741 mmHg 79%
09:00 +32°C° 0 mm 1 m/s 741 mmHg 67%
10:00 +35°C° 0 mm 2 m/s 741 mmHg 56%
11:00 +35°C° 0 mm 1 m/s 740 mmHg 52%
12:00 +37°C° 0 mm 1 m/s 739 mmHg 47%
13:00 +39°C° 0 mm 1 m/s 738 mmHg 43%
14:00 +39°C° 0 mm 1 m/s 737 mmHg 43%
15:00 +37°C° 0 mm 1 m/s 737 mmHg 44%
16:00 +38°C° 0 mm 2 m/s 736 mmHg 44%
17:00 +35°C° 0.2 mm 2 m/s 736 mmHg 54%
18:00 +32°C° 0.2 mm 2 m/s 737 mmHg 63%
19:00 +30°C° 0.2 mm 2 m/s 737 mmHg 73%
20:00 +28°C° 0.8 mm 2 m/s 738 mmHg 81%
21:00 +27°C° 0.8 mm 1 m/s 739 mmHg 89%
22:00 +26°C° 0.8 mm 1 m/s 739 mmHg 97%
23:00 +25°C° 0 mm 1 m/s 739 mmHg 97%

27 Novembro, Sexta-feira

Tempo Temperatura Precipitação Vento Pressão Humidade
00:00 +25°C° 0 mm 1 m/s 739 mmHg 97%
01:00 +25°C° 0 mm 1 m/s 739 mmHg 98%
02:00 +25°C° 0 mm 1 m/s 739 mmHg 98%
03:00 +25°C° 0 mm 1 m/s 739 mmHg 98%
04:00 +25°C° 0 mm 1 m/s 739 mmHg 98%
05:00 +25°C° 0 mm 1 m/s 740 mmHg 95%
06:00 +26°C° 0 mm 1 m/s 741 mmHg 93%
07:00 +27°C° 0 mm 1 m/s 741 mmHg 90%
08:00 +29°C° 0 mm 1 m/s 741 mmHg 77%
09:00 +32°C° 0 mm 2 m/s 741 mmHg 64%
10:00 +35°C° 0 mm 2 m/s 741 mmHg 51%
11:00 +36°C° 0 mm 2 m/s 740 mmHg 48%
12:00 +37°C° 0 mm 2 m/s 739 mmHg 45%
13:00 +38°C° 0 mm 2 m/s 738 mmHg 42%
14:00 +37°C° 0 mm 2 m/s 737 mmHg 43%
15:00 +37°C° 0 mm 2 m/s 737 mmHg 44%
16:00 +36°C° 0 mm 2 m/s 737 mmHg 46%
17:00 +34°C° 0 mm 1 m/s 737 mmHg 51%
18:00 +32°C° 0 mm 1 m/s 737 mmHg 56%
19:00 +30°C° 0 mm 1 m/s 738 mmHg 62%
20:00 +29°C° 0 mm 1 m/s 738 mmHg 66%
21:00 +29°C° 0 mm 2 m/s 739 mmHg 70%
22:00 +28°C° 0 mm 2 m/s 739 mmHg 75%
23:00 +27°C° 0.1 mm 2 m/s 739 mmHg 80%

28 Novembro, Sábado

Tempo Temperatura Precipitação Vento Pressão Humidade
00:00 +26°C° 0.1 mm 1 m/s 739 mmHg 85%
01:00 +25°C° 0.1 mm 1 m/s 739 mmHg 90%
02:00 +23°C° 0.5 mm 0 m/s 739 mmHg 92%
03:00 +23°C° 0.5 mm 0 m/s 739 mmHg 94%
04:00 +22°C° 0.5 mm 0 m/s 739 mmHg 97%
05:00 +23°C° 0.2 mm 0 m/s 740 mmHg 94%
06:00 +26°C° 0.2 mm 1 m/s 741 mmHg 92%
07:00 +27°C° 0.2 mm 1 m/s 741 mmHg 89%
08:00 +30°C° 0 mm 1 m/s 741 mmHg 74%
09:00 +34°C° 0 mm 2 m/s 741 mmHg 60%
10:00 +37°C° 0 mm 2 m/s 741 mmHg 45%
11:00 +38°C° 0 mm 2 m/s 740 mmHg 42%
12:00 +39°C° 0 mm 2 m/s 739 mmHg 39%
13:00 +39°C° 0 mm 2 m/s 738 mmHg 36%
14:00 +39°C° 0 mm 2 m/s 738 mmHg 38%
15:00 +38°C° 0 mm 2 m/s 737 mmHg 40%
16:00 +36°C° 0 mm 1 m/s 736 mmHg 42%
17:00 +34°C° 0.1 mm 1 m/s 737 mmHg 51%
18:00 +32°C° 0.1 mm 1 m/s 738 mmHg 60%
19:00 +29°C° 0.1 mm 1 m/s 738 mmHg 69%
20:00 +28°C° 0.9 mm 1 m/s 739 mmHg 77%
21:00 +25°C° 0.9 mm 0 m/s 739 mmHg 85%
22:00 +23°C° 0.9 mm 0 m/s 740 mmHg 94%
23:00 +25°C° 0.1 mm 1 m/s 740 mmHg 94%
Mostrar mais

Necessitamos do seu Consentimento

A Meteoprog e os seus Fornecedores de Serviços podem armazenar e aceder a dados pessoais como cookies, identificadores do dispositivo ou outras tecnologias semelhantes existentes no seu dispositivo e processar estes dados para personalizar conteúdos e anúncios, assim como funcionalidades nas redes sociais e análise de tráfego.

  • Armazenar e/ou aceder a informações no seu dispositivo

    Os cookies, identificadores do dispositivo ou outras informações podem ser armazenados ou acedidos no seu dispositivo, para os fins acima indicados.

  • Anúncios e conteúdos personalizados, medição de anúncios e conteúdos, dados sobre o público-alvo e desenvolvimento de produtos

    Os anúncios e os conteúdos podem ser personalizados com base num perfil. Podem ser adicionados dados adicionais para uma maior personalização dos anúncios e dos conteúdos. A eficácia dos anúncios e dos conteúdos pode ser medida. Podem ser obtidas informações sobre o público que visualizou os anúncios e os conteúdos. Estes dados podem ser usados para desenvolver ou melhorar sistemas, softwares ou a experiência do utilizador.

Ao clicar em "Eu concordo”, permitirá o uso de cookies, identificadores do dispositivo e web beacons mencionados ou outras tecnologias semelhantes. As configurações do navegador do seu dispositivo podem ser alteradas.

Para certos fins, podem ser invocados interesses legítimos ao invés de consentimento. Pode ler mais informação sobre este assunto na nossa Política de Privacidade e Cookies.